Onweer van: 25-07-2021 11:00 tot: 20:00 waarschuwing voor: Onweer niveau: Geel info button


waarschuwing voor Onweer Meer informatie blitzortung!


Regen radar Meer informatie rain snow radar


Bezoek onze andere website:

Template documentation
and downloads

And another site



15 daagse weersverwachting Køge (DK)

  • Overzicht
  • Per uur
  • 15 dagen
  • Extra
  • Vergelijk
  • Kaarten
  • Dagkaart
  • Meer »
  • Info
  • Statistieken
  • Directe link
    Temp 6h Neerslag Wind  
 05:09     21:28    Daglengte: 16:19 Vandaag
08:00
20°
 
9
14:00
23°
 
9
20:00
23°
 
6
 05:10     21:26    Daglengte: 16:16 Morgen
02:00
21°
 
5
08:00
21°
 
5
warningclass
14:00
24°
5.0 mm
5
20:00
22°
 
5
 05:12     21:25    Daglengte: 16:13 Dinsdag 27 Jul
02:00
20°
7.8 mm
3
08:00
20°
16.2 mm
4
14:00
22°
6.6 mm
6
20:00
21°
3.3 mm
4
 05:14     21:23    Daglengte: 16:09 Woensdag 28 Jul
02:00
18°
 
3
Locatie info
Region: Sjælland
Latitude: 55.4560°N
Longitude: 12.1823°E
4 masl
Postcode: 4600
Temp/Neerslag /Baro Onweer/Dauwpunt
    Temp Baro 1h Neerslag Dauwpunt Wind UV Bewolking  
 05:09     21:28    Daglengte: 16:19 Vandaag
05:00
20°
1012.4 hPa   16.9°
8
Windvlaag: 5.1 m/s
74%
06:00
20°
1012.2 hPa   17.0°
8
Windvlaag: 5.7 m/s
84%
07:00
20°
1012.2 hPa   17.2°
8
Windvlaag: 5.8 m/s
83%
08:00
20°
1012.2 hPa
19%
17.4°
9
Windvlaag: 5.9 m/s
85%
09:00
20°
1012.3 hPa
20%
17.5°
9
Windvlaag: 6.6 m/s
82%
10:00
21°
1012.5 hPa   17.8°
9
Windvlaag: 6.7 m/s
69%
11:00
21°
1012.6 hPa   17.7°
9
Windvlaag: 6.6 m/s
79%
12:00
22°
1012.6 hPa   17.2°
9
Windvlaag: 6.2 m/s
68%
13:00
22°
1012.7 hPa
15%
17.0°
9
Windvlaag: 5.9 m/s
74%
14:00
23°
1012.4 hPa
17%
16.8°
9
Windvlaag: 4.8 m/s
70%
15:00
23°
1012.6 hPa
19%
16.4°
8
Windvlaag: 5.1 m/s
79%
16:00
23°
1012.5 hPa
19%
15.8°
8
Windvlaag: 5.3 m/s
72%
17:00
23°
1012.1 hPa
15%
15.9°
7
Windvlaag: 5.7 m/s
47%
18:00
23°
1011.7 hPa   16.2°
7
Windvlaag: 5.9 m/s
48%
19:00
23°
1011.7 hPa   16.1°
7
Windvlaag: 5.2 m/s
53%
20:00
23°
1011.7 hPa   16.0°
6
Windvlaag: 4.5 m/s
36%
21:00
22°
1011.9 hPa   16.8°
6
Windvlaag: 4.5 m/s
39%
22:00
22°
1012.0 hPa   16.8°
6
Windvlaag: 4 m/s
31%
23:00
21°
1012.0 hPa   17.2°
6
Windvlaag: 3.6 m/s
22%
 05:10     21:26    Daglengte: 16:16 Morgen
00:00
21°
1011.9 hPa   17.8°
6
Windvlaag: 1.9 m/s
38%
01:00
21°
1011.8 hPa
13%
17.9°
6
Windvlaag: 1.2 m/s
46%
02:00
21°
1011.3 hPa
14%
17.9°
5
Windvlaag: 0.7 m/s
76%
03:00
21°
1011.3 hPa
14%
18.5°
5
Windvlaag: 0.5 m/s
75%
04:00
20°
1010.9 hPa
17%
18.7°
5
Windvlaag: 0.8 m/s
75%
05:00
20°
1011.1 hPa
70%
18.9°
5
Windvlaag: 0.8 m/s
70%
06:00
20°
1011.0 hPa
82%
18.9°
5
Windvlaag: 1.6 m/s
82%
07:00
21°
1011.1 hPa
82%
19.1°
5
Windvlaag: 1.4 m/s
81% warningclass
08:00
21°
1011.0 hPa
82%
18.8°
5
Windvlaag: 1.5 m/s
75% warningclass
09:00
22°
1011.2 hPa
82%
18.8°
5
Windvlaag: 1.8 m/s
64% warningclass
10:00
23°
1011.3 hPa
82%
18.9°
5
Windvlaag: 3.4 m/s
65%
11:00
23°
1011.3 hPa 2.5 mm
82%
18.4°
4
Windvlaag: 3.9 m/s
78%
12:00
23°
1011.1 hPa 2.4 mm
82%
17.1°
4
Windvlaag: 4 m/s
78%
13:00
23°
1010.8 hPa
82%
16.6°
5
Windvlaag: 3.6 m/s
52%
14:00
24°
1010.5 hPa
82%
15.4°
5
Windvlaag: 3.5 m/s
73%
15:00
24°
1010.2 hPa
80%
15.8°
5
Windvlaag: 4.5 m/s
76%
16:00
24°
1010.1 hPa
72%
17.6°
5
Windvlaag: 4.9 m/s
75%
17:00
24°
1009.9 hPa
21%
18.9°
5
Windvlaag: 5.1 m/s
74%
18:00
23°
1009.7 hPa
16%
19.1°
5
Windvlaag: 4.3 m/s
65%
19:00
23°
1009.4 hPa
14%
18.9°
5
Windvlaag: 3.7 m/s
60%
20:00
22°
1009.4 hPa
14%
19.2°
5
Windvlaag: 2.3 m/s
83%
21:00
21°
1009.4 hPa
16%
19.4°
4
Windvlaag: 3.7 m/s
79%
22:00
21°
1009.5 hPa
21%
19.8°
3
Windvlaag: 4.2 m/s
75%
23:00
20°
1009.7 hPa
38%
19.0°
3
Windvlaag: 4 m/s
92%
 05:12     21:25    Daglengte: 16:13 Dinsdag 27 Jul
00:00
20°
1009.6 hPa 3.3 mm
90%
18.6°
2
Windvlaag: 3.7 m/s
95%
01:00
20°
1009.3 hPa 2.4 mm
98%
18.3°
2
Windvlaag: 3.4 m/s
91% warningclass
02:00
20°
1009.1 hPa 2.1 mm
92%
18.6°
3
Windvlaag: 4.7 m/s
94%
03:00
19°
1008.8 hPa 2.2 mm
89%
18.8°
2
Windvlaag: 4.3 m/s
91%
04:00
19°
1008.8 hPa
77%
18.6°
2
Windvlaag: 1.4 m/s
67%
05:00
19°
1008.7 hPa 3.4 mm
32%
18.5°
2
Windvlaag: 4.8 m/s
87%
06:00
19°
1008.6 hPa 3.9 mm
30%
18.6°
2
Windvlaag: 4.8 m/s
90%
07:00
19°
1008.6 hPa 3.3 mm
24%
17.6°
3
Windvlaag: 4.1 m/s
70%
08:00
20°
1008.6 hPa 3.3 mm
84%
16.8°
4
Windvlaag: 4.4 m/s
58%
09:00
20°
1008.8 hPa 3.3 mm
94%
16.1°
5
Windvlaag: 7.9 m/s
64%
10:00
21°
1008.9 hPa 3.3 mm
91%
16.0°
5
Windvlaag: 7.2 m/s
27%
11:00
21°
1008.9 hPa
93%
15.7°
5
Windvlaag: 7.7 m/s
60%
12:00
21°
1009.0 hPa
86%
15.0°
6
Windvlaag: 7.7 m/s
11%
13:00
22°
1009.1 hPa
82%
14.1°
6
Windvlaag: 8.2 m/s
14%
14:00
22°
1009.2 hPa
89%
13.0°
6
Windvlaag: 8.8 m/s
15%
15:00
21°
1009.3 hPa 3.3 mm
100%
12.9°
6
Windvlaag: 8 m/s
19%
16:00
22°
1009.3 hPa
42%
13.7°
6
Windvlaag: 7.3 m/s
19%
17:00
22°
1009.3 hPa
24%
14.6°
6
Windvlaag: 6.8 m/s
19%
18:00
22°
1009.3 hPa
25%
14.4°
6
Windvlaag: 6.5 m/s
17%
19:00
22°
1009.4 hPa
22%
14.1°
5
Windvlaag: 5.4 m/s
15%
20:00
21°
1009.4 hPa
22%
15.6°
4
Windvlaag: 4.8 m/s
15%
21:00
20°
1010.2 hPa
21%
16.4°
3
Windvlaag: 6.2 m/s
13%
22:00
19°
1010.6 hPa
21%
16.7°
3
Windvlaag: 6.9 m/s
26%
23:00
18°
1010.6 hPa
21%
16.2°
3
Windvlaag: 7.8 m/s
26%
 05:14     21:23    Daglengte: 16:09 Woensdag 28 Jul
00:00
18°
1010.6 hPa
21%
16.3°
2
Windvlaag: 7.9 m/s
51%
01:00
18°
1010.3 hPa
21%
16.9°
2
Windvlaag: 7.8 m/s
64%
02:00
18°
1010.0 hPa
22%
17.4°
3
Windvlaag: 7.4 m/s
67%
Temp/Neerslag /Baro Onweer/Dauwpunt
    Temp Baro Neerslag Dauwpunt Wind Bewolking  
 05:09     21:28    Daglengte: 16:19 Vandaag
05:00
20°
1012.4 hPa   16.9°
8
74%
08:00
20°
1012.2 hPa   17.4°
9
85%
11:00
21°
1012.6 hPa   17.7°
9
79%
14:00
23°
1012.4 hPa   16.8°
9
70%
17:00
23°
1012.1 hPa   15.9°
7
47%
20:00
23°
1011.7 hPa   16.0°
6
36%
23:00
21°
1012.0 hPa   17.2°
6
22%
 05:10     21:26    Daglengte: 16:16 Morgen
02:00
21°
1011.3 hPa   17.9°
5
76%
05:00
20°
1011.1 hPa   18.9°
5
70%
08:00
21°
1011.0 hPa   18.8°
5
75% warningclass
11:00
23°
1011.3 hPa 2.5 mm 18.4°
4
78%
14:00
24°
1010.5 hPa 2.4 mm 15.4°
5
73%
17:00
24°
1009.9 hPa   18.9°
5
74%
20:00
22°
1009.4 hPa   19.2°
5
83%
23:00
20°
1009.7 hPa   19.0°
3
92%
 05:12     21:25    Daglengte: 16:13 Dinsdag 27 Jul
02:00
20°
1009.1 hPa 7.8 mm 18.6°
3
94%
05:00
19°
1008.7 hPa 5.6 mm 18.5°
2
87%
08:00
20°
1008.6 hPa 10.6 mm 16.8°
4
58%
11:00
21°
1008.9 hPa 6.6 mm 15.7°
5
60%
14:00
22°
1009.2 hPa   13.0°
6
15%
17:00
22°
1009.3 hPa 3.3 mm 14.6°
6
19%
20:00
21°
1009.4 hPa   15.6°
4
15%
23:00
18°
1010.6 hPa   16.2°
3
26%
 05:14     21:23    Daglengte: 16:09 Woensdag 28 Jul
02:00
18°
1010.0 hPa   17.4°
3
67%
05:00
18°
1008.9 hPa 2.9 mm 14.1°
2
1%
08:00
18°
1008.0 hPa 4.0 mm 15.4°
2
1%
11:00
21°
1008.2 hPa 4.8 mm 15.3°
7
1%
14:00
23°
1008.3 hPa 4.9 mm 13.3°
8
1%
17:00
23°
1008.4 hPa 4.9 mm 12.8°
8
1%
20:00
20°
1008.9 hPa 5.1 mm 14.9°
7
0%
23:00
16°
1009.8 hPa 5.1 mm 13.9°
5
0%
 05:16     21:21    Daglengte: 16:05 Donderdag 29 Jul
02:00
16°
1010.1 hPa 5.1 mm 12.5°
5
0%
05:00
14°
1010.4 hPa 5.1 mm 12.1°
5
1%
08:00
17°
1010.1 hPa 5.1 mm 13.0°
5
1%
11:00
21°
1009.6 hPa 5.1 mm 11.4°
7
0%
14:00
22°
1008.8 hPa 5.1 mm 10.9°
8
0%
17:00
22°
1008.1 hPa 5.1 mm 11.5°
7
0%
20:00
21°
1006.9 hPa 5.1 mm 12.4°
5
0%
23:00
17°
1005.5 hPa 5.3 mm 14.1°
6
1%
 05:17     21:19    Daglengte: 16:02 Vrijdag 30 Jul
02:00
18°
1004.3 hPa 5.3 mm 13.9°
6
1%
05:00
15°
1004.8 hPa 5.9 mm 11.8°
7
1%
08:00
17°
1004.9 hPa 5.9 mm 12.2°
8
1%
11:00
20°
1005.3 hPa 5.9 mm 9.4°
10
0%
14:00
21°
1005.3 hPa 6.0 mm 9.3°
10
0%
17:00
20°
1005.0 hPa 6.1 mm 9.6°
10
1%
20:00
17°
1004.5 hPa 6.5 mm 12.5°
9
1%
23:00
16°
1004.7 hPa 6.7 mm 12.2°
9
0%
 05:19     21:17    Daglengte: 15:58 Zaterdag 31 Jul
02:00
15°
1005.1 hPa 6.7 mm 12.2°
8
0%
05:00
15°
1004.5 hPa 6.7 mm 12.8°
7
0%
08:00
18°
1004.1 hPa 6.8 mm 13.1°
8
0%
11:00
20°
1003.6 hPa 7.3 mm 11.9°
8
1%
14:00
21°
1002.9 hPa 7.4 mm 10.6°
9
1%
17:00
17°
1002.8 hPa 7.8 mm 12.5°
6
1%
20:00
15°
1003.2 hPa 8.5 mm 13.3°
6
1%
23:00
14°
1003.7 hPa 8.6 mm 11.7°
5
1%
 05:21     21:15    Daglengte: 15:54 Zondag 01 Aug
02:00
14°
1004.3 hPa 17.3 mm 11.9°
5
1%
08:00
15°
1006.3 hPa 17.7 mm 11.1°
5
1%
14:00
20°
1007.9 hPa 17.8 mm 7.6°
9
0%
20:00
18°
1009.2 hPa 17.8 mm 8.9°
5
1%
 05:23     21:13    Daglengte: 15:50 Maandag 02 Aug
02:00
14°
1009.6 hPa 18.0 mm 9.3°
4
1%
08:00
14°
1009.8 hPa 21.3 mm 10.8°
3
1%
14:00
18°
1010.8 hPa 24.4 mm 8.9°
6
1%
20:00
17°
1011.4 hPa 29.5 mm 9.8°
7
1%
 05:25     21:11    Daglengte: 15:46 Dinsdag 03 Aug
02:00
14°
1012.6 hPa 37.0 mm 11.7°
7
0%
14:00
17°
1015.7 hPa 57.0 mm 9.3°
6
1%
20:00
17°
1015.3 hPa 38.1 mm 9.9°
5
1%
 05:26     21:09    Daglengte: 15:43 Woensdag 04 Aug
02:00
15°
1006.9 hPa 0.4 mm 11.6°
3
49%
08:00
16°
1007.1 hPa 0.5 mm 12.0°
3
54%
14:00
19°
1007.7 hPa 1.6 mm 11.7°
4
56%
20:00
18°
1008.1 hPa 1.1 mm 11.8°
3
60%
 05:28     21:07    Daglengte: 15:39 Donderdag 05 Aug
02:00
15°
1009.0 hPa 0.7 mm 11.6°
3
51%
08:00
16°
1009.3 hPa 0.5 mm 12.0°
3
58%
14:00
20°
1010.0 hPa 1.3 mm 12.0°
4
62%
20:00
18°
1010.2 hPa 1.1 mm 12.4°
3
60%
 05:30     21:05    Daglengte: 15:35 Vrijdag 06 Aug
02:00
15°
1010.8 hPa 0.4 mm 12.1°
2
61%
08:00
17°
1011.0 hPa 0.3 mm 12.4°
3
56%
14:00
20°
1011.3 hPa 0.8 mm 12.5°
4
72%
20:00
19°
1010.9 hPa 0.4 mm 12.9°
2
68%
 05:32     21:03    Daglengte: 15:31 Zaterdag 07 Aug
02:00
16°
1011.0 hPa 0.9 mm 12.7°
2
76%
08:00
17°
1010.5 hPa 0.3 mm 12.9°
3
72%
14:00
20°
1010.5 hPa 0.7 mm 13.0°
4
71%
20:00
18°
1010.1 hPa 1.0 mm 12.9°
3
69%
 05:34     21:01    Daglengte: 15:27 Zondag 08 Aug
02:00
16°
1010.2 hPa 1.6 mm 12.6°
3
73%
08:00
17°
1010.0 hPa 0.3 mm 13.2°
3
76%
14:00
20°
1010.3 hPa 1.6 mm 13.7°
4
71%
20:00
19°
1010.4 hPa 1.1 mm 13.8°
4
55%
 05:36     20:59    Daglengte: 15:23 Maandag 09 Aug
02:00
16°
1010.9 hPa 1.1 mm 13.1°
4
60%
08:00
17°
1011.0 hPa 0.9 mm 13.4°
3
60%
  CAPE Lifted Index Hail Supercell Tornado SRH 3km CL BTM PRES CL TOP PRES Swiss DWD icon SMHI TS
 05:09     21:28    Daglengte: 16:19 Vandaag
05:00 35 J/kg 0.0 K 0 % 0 % 0 % 0 m²/s² 0 0 4.56 3
06:00 40 J/kg 0.3 K 0 % 0 % 0 % 0 m²/s² 0 0 3.99 3
07:00 47 J/kg 0.6 K 0 % 0 % 0 % 0 m²/s² 0 0 3.93 3
08:00 42 J/kg 0.4 K 0 % 0 % 0 % 0 m²/s² 0 0 3.22 61
09:00 61 J/kg 0.2 K 0 % 0 % 0 % 0 m²/s² 0 0 2.57 61
10:00 98 J/kg 0.0 K 0 % 0 % 0 % 0 m²/s² 0 0 2.1 3
11:00 109 J/kg 0.0 K 0 % 0 % 0 % 0 m²/s² 0 0 1.89 3
12:00 88 J/kg -0.2 K 0 % 0 % 0 % 0 m²/s² 0 0 1.69 3
13:00 84 J/kg -0.2 K 0 % 0 % 0 % 0 m²/s² 0 0 1.57 3
14:00 60 J/kg 0.0 K 0 % 0 % 0 % 0 m²/s² 0 0 1.53 3
15:00 37 J/kg 0.1 K 0 % 0 % 0 % 0 m²/s² 0 0 1.69 80
16:00 49 J/kg 0.1 K 0 % 0 % 0 % 0 m²/s² 0 0 1.75 61
17:00 67 J/kg -0.2 K 0 % 0 % 0 % 0 m²/s² 0 0 1.66 3
18:00 30 J/kg -0.1 K 0 % 0 % 0 % 0 m²/s² 0 0 1.94 3
19:00 26 J/kg 0.0 K 0 % 0 % 0 % 0 m²/s² 0 0 1.92 3
20:00 52 J/kg -0.5 K 0 % 0 % 0 % 0 m²/s² 0 0 0.52 3
21:00 57 J/kg -0.5 K 0 % 0 % 0 % 0 m²/s² 0 0 0.25 3
22:00 42 J/kg -0.5 K 0 % 0 % 0 % 0 m²/s² 0 0 0.16 3
23:00 145 J/kg -2.2 K 0 % 0 % 0 % 0 m²/s² 0 0 -1.72 3
 05:10     21:26    Daglengte: 16:16 Morgen
00:00 346 J/kg -2.1 K 0 % 0 % 0 % 0 m²/s² 0 0 -1.89 3
01:00 345 J/kg -1.9 K 0 % 0 % 0 % 0 m²/s² 0 0 -1.45 3
02:00 395 J/kg -1.9 K 0 % 0 % 0 % 0 m²/s² 0 0 -1.6 3
03:00 176 J/kg -1.4 K 0 % 0 % 0 % 0 m²/s² 0 0 -1.37 3
04:00 239 J/kg -1.0 K 0 % 0 % 0 % 0 m²/s² 0 0 -0.61 3
05:00 244 J/kg -1.5 K 0 % 0 % 0 % 0 m²/s² 0 0 -1.47 3
06:00 426 J/kg -2.3 K 0 % 0 % 0 % 0 m²/s² 0 0 -2.3 80
07:00 417 J/kg -1.8 K 0 % 0 % 0 % 0 m²/s² 0 0 -1.71 95
08:00 359 J/kg -1.8 K 0 % 0 % 0 % 0 m²/s² 0 0 -1.71 95
09:00 215 J/kg -1.2 K 0 % 0 % 0 % 0 m²/s² 0 0 -1.08 95
10:00 60 J/kg -1.0 K 0 % 0 % 0 % 0 m²/s² 0 0 -0.43 61
11:00 34 J/kg -0.5 K 0 % 0 % 0 % 0 m²/s² 0 0 0.22 80
12:00 98 J/kg -1.0 K 0 % 0 % 0 % 0 m²/s² 0 0 0.05 61
13:00 202 J/kg -1.4 K 0 % 0 % 0 % 0 m²/s² 0 0 0.1 61
14:00 386 J/kg -2.1 K 0 % 0 % 0 % 0 m²/s² 0 0 0.3 61
15:00 565 J/kg -2.8 K 0 % 0 % 0 % 0 m²/s² 0 0 0.05 3
16:00 503 J/kg -2.6 K 0 % 0 % 0 % 0 m²/s² 0 0 1.06 3
17:00 698 J/kg -3.2 K 0 % 0 % 0 % 0 m²/s² 0 0 -0.26 3
18:00 739 J/kg -3.4 K 0 % 0 % 0 % 0 m²/s² 0 0 -0.85 3
19:00 576 J/kg -3.2 K 0 % 0 % 0 % 0 m²/s² 0 0 -0.74 3
20:00 608 J/kg -3.4 K 0 % 0 % 0 % 0 m²/s² 0 0 -1.42 3
21:00 442 J/kg -2.4 K 0 % 0 % 0 % 0 m²/s² 0 0 -0.81 3
22:00 473 J/kg -2.2 K 0 % 0 % 0 % 0 m²/s² 0 0 -0.16 3
23:00 259 J/kg -2.2 K 0 % 0 % 0 % 0 m²/s² 0 0 0.56 3
 05:12     21:25    Daglengte: 16:13 Dinsdag 27 Jul
00:00 88 J/kg -3.0 K 0 % 0 % 0 % 0 m²/s² 0 0 -0.96 3
01:00 506 J/kg -3.5 K 0 % 0 % 0 % 0 m²/s² 0 0 -2.03 80
02:00 788 J/kg -3.8 K 0 % 0 % 0 % 0 m²/s² 0 0 -1.49 80
03:00 875 J/kg -4.2 K 0 % 0 % 0 % 0 m²/s² 0 0 -1.98 80
04:00 674 J/kg -3.4 K 0 % 0 % 0 % 0 m²/s² 0 0 -1.18 3
05:00 627 J/kg -3.0 K 0 % 0 % 0 % 0 m²/s² 0 0 -0.99 3
06:00 576 J/kg -2.9 K 0 % 0 % 0 % 0 m²/s² 0 0 -1.49 2
07:00 414 J/kg -2.2 K 0 % 0 % 0 % 0 m²/s² 0 0 -0.67 3
08:00 177 J/kg -1.0 K 0 % 0 % 0 % 0 m²/s² 0 0 1.43 2
09:00 69 J/kg -0.4 K 0 % 0 % 0 % 0 m²/s² 0 0 2.99 3
10:00 139 J/kg -0.6 K 0 % 0 % 0 % 0 m²/s² 0 0 4.26 2
11:00 143 J/kg -0.4 K 0 % 0 % 0 % 0 m²/s² 0 0 3.89 2
12:00 89 J/kg 0.0 K 0 % 0 % 0 % 0 m²/s² 0 0 3.6 2
13:00 139 J/kg -0.2 K 0 % 0 % 0 % 0 m²/s² 0 0 2.23 2
14:00 160 J/kg -0.1 K 0 % 0 % 0 % 0 m²/s² 0 0 1.49 3
15:00 361 J/kg -0.8 K 0 % 0 % 0 % 0 m²/s² 0 0 0.97 80
16:00 489 J/kg -1.6 K 0 % 0 % 0 % 0 m²/s² 0 0 -0.13 2
17:00 599 J/kg -2.2 K 0 % 0 % 0 % 0 m²/s² 0 0 0.23 1
18:00 663 J/kg -2.4 K 0 % 0 % 0 % 0 m²/s² 0 0 0.09 2
19:00 603 J/kg -2.2 K 0 % 0 % 0 % 0 m²/s² 0 0 1.01 1
20:00 674 J/kg -2.3 K 0 % 0 % 0 % 0 m²/s² 0 0 1.78 1
21:00 450 J/kg -2.4 K 0 % 0 % 0 % 0 m²/s² 0 0 1.38 1
22:00 359 J/kg -1.9 K 0 % 0 % 0 % 0 m²/s² 0 0 1.67 2
23:00 329 J/kg -1.6 K 0 % 0 % 0 % 0 m²/s² 0 0 1.7 2
 05:14     21:23    Daglengte: 16:09 Woensdag 28 Jul
00:00 506 J/kg -2.2 K 0 % 0 % 0 % 0 m²/s² 0 0 1.16 3
01:00 635 J/kg -2.0 K 0 % 0 % 0 % 0 m²/s² 0 0 1.21 3
02:00 960 J/kg -3.3 K 0 % 0 % 0 % 0 m²/s² 0 0 -0.81 3
Temp Baro Wind Neerslag
  EWN Forecast EWN WRFDA DWD ICON FMI HIRLAM MET Norway GFS
 05:09     21:28    Daglengte: 16:19 Vandaag
05:00 19.8° 1012.4 hPa 7.6 m/s 0.0 mm 18.8° 1011.3 hPa 8.4 m/s 0.0 mm 19.6° 1012.7 hPa 5.8 m/s -2.0 mm 19.9° 1012.5 hPa 7.6 m/s 0.0 mm 19.5° 1012.2 hPa 8.2 m/s
08:00 20.3° 1012.2 hPa 8.5 m/s 0.0 mm 20.1° 1011.2 hPa 9.8 m/s 0.0 mm 19.8° 1012.1 hPa 6.9 m/s 0.2 mm 20.3° 1012.4 hPa 8.3 m/s 0.0 mm 20.6° 1012.2 hPa 9.1 m/s
11:00 21.1° 1012.6 hPa 8.7 m/s 0.0 mm 21.6° 1012.0 hPa 10.2 m/s 0.0 mm 21.0° 1012.3 hPa 8.3 m/s 0.2 mm 21.0° 1012.6 hPa 8.3 m/s 0.0 mm 22.7° 1012.6 hPa 9.0 m/s
14:00 22.7° 1012.4 hPa 8.5 m/s 0.0 mm 22.7° 1011.8 hPa 9.5 m/s 0.0 mm 21.7° 1012.4 hPa 7.9 m/s 0.2 mm 23.5° 1013.0 hPa 8.3 m/s 0.0 mm 23.3° 1012.7 hPa 8.0 m/s
17:00 23.1° 1012.1 hPa 7.5 m/s 0.0 mm 22.9° 1011.2 hPa 8.4 m/s 0.0 mm 22.2° 1012.1 hPa 6.8 m/s 0.6 mm 23.8° 1012.6 hPa 7.1 m/s 0.0 mm 23.1° 1012.1 hPa 7.5 m/s
20:00 22.7° 1011.7 hPa 6.3 m/s 0.0 mm 22.1° 1010.7 hPa 6.6 m/s 0.0 mm 22.0° 1011.8 hPa 6.2 m/s 0.0 mm 22.9° 1012.1 hPa 5.1 m/s 0.0 mm 22.0° 1011.5 hPa 7.2 m/s
23:00 21.3° 1012.0 hPa 5.8 m/s 0.0 mm 20.3° 1011.0 hPa 7.9 m/s 0.0 mm 20.7° 1012.1 hPa 5.4 m/s 0.0 mm 21.4° 1012.2 hPa 5.4 m/s 0.0 mm 20.2° 1012.1 hPa 5.5 m/s
 05:10     21:26    Daglengte: 16:16 Morgen
02:00 20.7° 1011.3 hPa 5.5 m/s 0.0 mm 19.8° 1010.5 hPa 4.5 m/s 0.5 mm 20.2° 1011.4 hPa 4.7 m/s 0.0 mm 20.8° 1011.0 hPa 5.7 m/s 0.0 mm 19.3° 1011.4 hPa 4.2 m/s
05:00 20.4° 1011.1 hPa 5.2 m/s 0.0 mm 19.1° 1009.7 hPa 6.0 m/s 17.8 mm 20.0° 1011.6 hPa 4.1 m/s 0.2 mm 20.5° 1010.4 hPa 5.3 m/s 0.0 mm 19.6° 1010.9 hPa 2.1 m/s
08:00 21.2° 1011.0 hPa 4.9 m/s 0.0 mm 20.0° 1009.5 hPa 4.9 m/s 27.8 mm 20.1° 1011.4 hPa 3.9 m/s 4.9 mm 21.8° 1010.0 hPa 5.1 m/s 0.0 mm 21.4° 1011.6 hPa 3.4 m/s
11:00 23.2° 1011.3 hPa 4.3 m/s 2.5 mm 22.0° 1009.4 hPa 3.5 m/s 29.0 mm 20.4° 1011.7 hPa 4.2 m/s 3.4 mm 24.5° 1010.1 hPa 4.0 m/s 0.0 mm 23.0° 1012.0 hPa 5.9 m/s
14:00 23.8° 1010.5 hPa 5.2 m/s 2.4 mm 22.7° 1008.7 hPa 3.6 m/s 29.0 mm 20.8° 1011.2 hPa 4.6 m/s 1.0 mm 26.9° 1008.6 hPa 5.6 m/s 0.0 mm 23.9° 1011.9 hPa 6.0 m/s
17:00 23.5° 1009.9 hPa 4.5 m/s 0.0 mm 23.0° 1007.9 hPa 2.9 m/s 29.0 mm 21.1° 1010.5 hPa 2.5 m/s 0.1 mm 24.1° 1008.0 hPa 7.4 m/s 0.0 mm 23.9° 1011.5 hPa 5.7 m/s
20:00 22.1° 1009.4 hPa 4.6 m/s 0.0 mm 21.8° 1008.0 hPa 3.5 m/s 29.0 mm 21.1° 1010.1 hPa 2.0 m/s 0.0 mm 22.5° 1007.6 hPa 5.1 m/s 0.0 mm 21.6° 1011.2 hPa 4.5 m/s
23:00 20.0° 1009.7 hPa 2.7 m/s 0.0 mm 18.8° 1007.7 hPa 3.4 m/s 29.0 mm 19.8° 1010.1 hPa 1.8 m/s 0.0 mm 19.4° 1011.0 hPa 2.8 m/s
 05:12     21:25    Daglengte: 16:13 Dinsdag 27 Jul
02:00 19.6° 1009.1 hPa 3.2 m/s 7.8 mm 18.1° 1007.0 hPa 3.5 m/s 29.0 mm 19.4° 1009.4 hPa 1.9 m/s 0.6 mm 19.0° 1011.0 hPa 2.3 m/s
05:00 19.0° 1008.7 hPa 1.9 m/s 5.6 mm 17.0° 1007.4 hPa 3.3 m/s 29.0 mm 18.9° 1008.9 hPa 1.8 m/s 0.2 mm 18.4° 1009.9 hPa 2.3 m/s
08:00 20.0° 1008.6 hPa 3.7 m/s 10.6 mm 19.4° 1008.2 hPa 5.3 m/s 29.0 mm 19.9° 1008.5 hPa 3.9 m/s 0.0 mm 20.3° 1010.2 hPa 3.9 m/s
11:00 21.1° 1008.9 hPa 5.1 m/s 6.6 mm 21.3° 1009.0 hPa 5.4 m/s 29.0 mm 21.0° 1008.8 hPa 5.0 m/s 0.3 mm 23.0° 1010.3 hPa 4.6 m/s
14:00 21.8° 1009.2 hPa 6.2 m/s 0.0 mm 23.9° 1009.1 hPa 5.5 m/s 29.0 mm 21.2° 1009.3 hPa 6.4 m/s 0.1 mm 23.9° 1010.3 hPa 6.1 m/s
17:00 22.4° 1009.3 hPa 6.0 m/s 3.3 mm 24.1° 1008.7 hPa 4.2 m/s 29.7 mm 22.0° 1009.5 hPa 6.5 m/s 0.2 mm 23.7° 1010.5 hPa 6.0 m/s
20:00 20.9° 1009.4 hPa 4.0 m/s 0.0 mm 22.6° 1007.8 hPa 3.1 m/s 31.4 mm 20.5° 1009.9 hPa 4.2 m/s 0.0 mm 21.9° 1010.2 hPa 4.3 m/s
23:00 18.2° 1010.6 hPa 2.6 m/s 0.0 mm 18.9° 1008.2 hPa 4.1 m/s 31.5 mm 18.1° 1011.2 hPa 2.2 m/s 0.0 mm 17.8° 1010.9 hPa 2.9 m/s
 05:14     21:23    Daglengte: 16:09 Woensdag 28 Jul
02:00 18.3° 1010.0 hPa 2.7 m/s 0.0 mm 18.3° 1006.9 hPa 3.7 m/s 31.5 mm 18.2° 1010.8 hPa 2.5 m/s 0.0 mm 17.1° 1010.1 hPa 1.5 m/s
05:00 18.0° 1008.9 hPa 2.4 m/s 2.9 mm 18.0° 1008.9 hPa 2.4 m/s 2.9 mm
08:00 18.5° 1008.0 hPa 2.1 m/s 4.0 mm 18.5° 1008.0 hPa 2.1 m/s 4.0 mm
11:00 21.4° 1008.2 hPa 7.0 m/s 4.8 mm 21.4° 1008.2 hPa 7.0 m/s 4.8 mm
14:00 22.7° 1008.3 hPa 8.3 m/s 4.9 mm 22.7° 1008.3 hPa 8.3 m/s 4.9 mm
17:00 22.9° 1008.4 hPa 7.5 m/s 4.9 mm 22.9° 1008.4 hPa 7.5 m/s 4.9 mm
20:00 19.6° 1008.9 hPa 7.1 m/s 5.1 mm 19.6° 1008.9 hPa 7.1 m/s 5.1 mm
23:00 16.4° 1009.8 hPa 5.4 m/s 5.1 mm 16.4° 1009.8 hPa 5.4 m/s 5.1 mm
 05:16     21:21    Daglengte: 16:05 Donderdag 29 Jul
02:00 16.1° 1010.1 hPa 5.0 m/s 5.1 mm 16.1° 1010.1 hPa 5.0 m/s 5.1 mm
05:00 14.3° 1010.4 hPa 4.6 m/s 5.1 mm 14.3° 1010.4 hPa 4.6 m/s 5.1 mm
08:00 17.4° 1010.1 hPa 5.1 m/s 5.1 mm 17.4° 1010.1 hPa 5.1 m/s 5.1 mm
11:00 20.7° 1009.6 hPa 7.1 m/s 5.1 mm 20.7° 1009.6 hPa 7.1 m/s 5.1 mm
14:00 22.1° 1008.8 hPa 7.8 m/s 5.1 mm 22.1° 1008.8 hPa 7.8 m/s 5.1 mm
17:00 22.4° 1008.1 hPa 7.2 m/s 5.1 mm 22.4° 1008.1 hPa 7.2 m/s 5.1 mm
20:00 20.6° 1006.9 hPa 5.0 m/s 5.1 mm 20.6° 1006.9 hPa 5.0 m/s 5.1 mm
23:00 17.4° 1005.5 hPa 5.7 m/s 5.3 mm 17.4° 1005.5 hPa 5.7 m/s 5.3 mm
 05:17     21:19    Daglengte: 16:02 Vrijdag 30 Jul
02:00 17.6° 1004.3 hPa 5.6 m/s 5.3 mm 17.6° 1004.3 hPa 5.6 m/s 5.3 mm
05:00 15.1° 1004.8 hPa 6.7 m/s 5.9 mm 15.1° 1004.8 hPa 6.7 m/s 5.9 mm
08:00 17.2° 1004.9 hPa 7.9 m/s 5.9 mm 17.2° 1004.9 hPa 7.9 m/s 5.9 mm
11:00 19.8° 1005.3 hPa 9.7 m/s 5.9 mm 19.8° 1005.3 hPa 9.7 m/s 5.9 mm
14:00 20.7° 1005.3 hPa 10.2 m/s 6.0 mm 20.7° 1005.3 hPa 10.2 m/s 6.0 mm
17:00 19.7° 1005.0 hPa 10.3 m/s 6.1 mm 19.7° 1005.0 hPa 10.3 m/s 6.1 mm
20:00 17.1° 1004.5 hPa 9.3 m/s 6.5 mm 17.1° 1004.5 hPa 9.3 m/s 6.5 mm
23:00 15.8° 1004.7 hPa 8.5 m/s 6.7 mm 15.8° 1004.7 hPa 8.5 m/s 6.7 mm
 05:19     21:17    Daglengte: 15:58 Zaterdag 31 Jul
02:00 15.4° 1005.1 hPa 7.6 m/s 6.7 mm 15.4° 1005.1 hPa 7.6 m/s 6.7 mm
05:00 15.3° 1004.5 hPa 6.6 m/s 6.7 mm 15.3° 1004.5 hPa 6.6 m/s 6.7 mm
08:00 17.7° 1004.1 hPa 7.5 m/s 6.8 mm 17.7° 1004.1 hPa 7.5 m/s 6.8 mm
11:00 19.8° 1003.6 hPa 8.1 m/s 7.3 mm 19.8° 1003.6 hPa 8.1 m/s 7.3 mm
14:00 20.7° 1002.9 hPa 8.6 m/s 7.4 mm 20.7° 1002.9 hPa 8.6 m/s 7.4 mm
17:00 17.1° 1002.8 hPa 6.3 m/s 7.8 mm 17.1° 1002.8 hPa 6.3 m/s 7.8 mm
20:00 15.4° 1003.2 hPa 5.7 m/s 8.5 mm 15.4° 1003.2 hPa 5.7 m/s 8.5 mm
23:00 13.7° 1003.7 hPa 5.2 m/s 8.6 mm 13.7° 1003.7 hPa 5.2 m/s 8.6 mm
 05:21     21:15    Daglengte: 15:54 Zondag 01 Aug
02:00 13.7° 1004.3 hPa 5.1 m/s 8.7 mm 13.7° 1004.3 hPa 5.1 m/s 8.7 mm
08:00 15.4° 1006.3 hPa 5.0 m/s 8.8 mm 15.4° 1006.3 hPa 5.0 m/s 8.8 mm
14:00 20.0° 1007.9 hPa 8.6 m/s 8.9 mm 20.0° 1007.9 hPa 8.6 m/s 8.9 mm
20:00 17.7° 1009.2 hPa 5.3 m/s 8.9 mm 17.7° 1009.2 hPa 5.3 m/s 8.9 mm
 05:23     21:13    Daglengte: 15:50 Maandag 02 Aug
02:00 13.6° 1009.6 hPa 3.7 m/s 9.1 mm 13.6° 1009.6 hPa 3.7 m/s 9.1 mm
08:00 14.2° 1009.8 hPa 3.0 m/s 10.9 mm 14.2° 1009.8 hPa 3.0 m/s 10.9 mm
14:00 18.3° 1010.8 hPa 6.3 m/s 12.9 mm 18.3° 1010.8 hPa 6.3 m/s 12.9 mm
20:00 16.5° 1011.4 hPa 7.3 m/s 15.0 mm 16.5° 1011.4 hPa 7.3 m/s 15.0 mm
 05:25     21:11    Daglengte: 15:46 Dinsdag 03 Aug
02:00 14.0° 1012.6 hPa 7.1 m/s 18.9 mm 14.0° 1012.6 hPa 7.1 m/s 18.9 mm
14:00 17.3° 1015.7 hPa 6.3 m/s 19.0 mm 17.3° 1015.7 hPa 6.3 m/s 19.0 mm
20:00 17.1° 1015.3 hPa 5.0 m/s 19.1 mm 17.1° 1015.3 hPa 5.0 m/s 19.1 mm
 05:26     21:09    Daglengte: 15:43 Woensdag 04 Aug
02:00 14.6° 1006.9 hPa 3.1 m/s 0.4 mm
08:00 16.0° 1007.1 hPa 3.4 m/s 0.5 mm
14:00 19.3° 1007.7 hPa 4.3 m/s 1.6 mm
20:00 17.9° 1008.1 hPa 3.2 m/s 1.1 mm
 05:28     21:07    Daglengte: 15:39 Donderdag 05 Aug
02:00 14.8° 1009.0 hPa 2.8 m/s 0.7 mm
08:00 16.2° 1009.3 hPa 2.9 m/s 0.5 mm
14:00 19.7° 1010.0 hPa 3.7 m/s 1.3 mm
20:00 18.3° 1010.2 hPa 2.8 m/s 1.1 mm
 05:30     21:05    Daglengte: 15:35 Vrijdag 06 Aug
02:00 15.1° 1010.8 hPa 2.3 m/s 0.4 mm
08:00 16.5° 1011.0 hPa 2.8 m/s 0.3 mm
14:00 20.1° 1011.3 hPa 3.5 m/s 0.8 mm
20:00 18.6° 1010.9 hPa 2.5 m/s 0.4 mm
 05:32     21:03    Daglengte: 15:31 Zaterdag 07 Aug
02:00 15.6° 1011.0 hPa 2.3 m/s 0.9 mm
08:00 16.5° 1010.5 hPa 2.7 m/s 0.3 mm
14:00 19.9° 1010.5 hPa 3.7 m/s 0.7 mm
20:00 18.2° 1010.1 hPa 2.8 m/s 1.0 mm
 05:34     21:01    Daglengte: 15:27 Zondag 08 Aug
02:00 15.7° 1010.2 hPa 2.6 m/s 1.6 mm
08:00 16.6° 1010.0 hPa 2.9 m/s 0.3 mm
14:00 19.9° 1010.3 hPa 4.2 m/s 1.6 mm
20:00 18.6° 1010.4 hPa 3.6 m/s 1.1 mm
 05:36     20:59    Daglengte: 15:23 Maandag 09 Aug
02:00 15.8° 1010.9 hPa 3.6 m/s 1.1 mm
08:00 16.9° 1011.0 hPa 3.5 m/s 0.9 mm
FMI Hirlam - 7.5 km EWN WRFDA - 12 km DWD ICON - 7 km GFS - 25 km Basiskaart






























































Updatetijd (Europe/Amsterdam) Resolutie Lengte Stap
FMI Hirlam 02:00, 08:00, 14:00, 20:00 7.5 km 49h 1h
EWN WRFDA 22:15, 04:15, 10:15, 16:15 12 km 73h 1h
DWD ICON 23:45, 05:45, 11:45, 17:45 7 km 75h 1h
GFS 02:15, 08:15, 14:15, 20:15 25 km 237h 3h
30+ mm
25-30 mm
20-25 mm
15-20 mm
10-15 mm
6-10 mm
4-6 mm
2-4 mm
1-2 mm
0.5-1 mm
0.2-0.5 mm
0.1-0.2 mm
30+ mm
25-30 mm
20-25 mm
15-20 mm
10-15 mm
6-10 mm
4-6 mm
2-4 mm
1-2 mm
0.5-1 mm
0.2-0.5 mm
0.1-0.2 mm
Sneeuwval
Natte sneeuw
Hagel
Vorst
30+ mm
25-30 mm
20-25 mm
15-20 mm
10-15 mm
6-10 mm
4-6 mm
2-4 mm
1-2 mm
0.5-1 mm
0.2-0.5 mm
0.1-0.2 mm
Sneeuwval
Natte sneeuw
Hagel
Vorst
Onweer
50 mm
40 mm
30 mm
26 mm
22 mm
18 mm
14 mm
10 mm
9 mm
8 mm
7 mm
6 mm
5 mm
4.5 mm
4 mm
3.5 mm
3 mm
2.5 mm
2 mm
1.5 mm
1 mm
0.8 mm
0.6 mm
0.4 mm
0.2 mm
0.05 mm
35°
30°
25°
20°
15°
10°
-5°
-10°
-15°
-20°
-25°
-30°
-35°
33> m/s
29 m/s
25 m/s
21 m/s
17 m/s
14 m/s
11 m/s
8 m/s
5 m/s
3 m/s
0 m/s
2600 J/kg
2400 J/kg
2200 J/kg
2000 J/kg
1800 J/kg
1600 J/kg
1400 J/kg
1200 J/kg
1000 J/kg
800 J/kg
600 J/kg
400 J/kg
200 J/kg
70 dBZ
65 dBZ
60 dBZ
55 dBZ
50 dBZ
45 dBZ
40 dBZ
35 dBZ
30 dBZ
25 dBZ
20 dBZ
15 dBZ
10 dBZ
5 dBZ
-1 K
-2 K
-3 K
-4 K
-5 K
-6 K
-7 K
-8 K
-9 K
950 m²/s²
900 m²/s²
850 m²/s²
800 m²/s²
750 m²/s²
700 m²/s²
650 m²/s²
600 m²/s²
550 m²/s²
500 m²/s²
450 m²/s²
400 m²/s²
350 m²/s²
300 m²/s²
250 m²/s²
200 m²/s²
150 m²/s²
100 m²/s²
46 m/s
44 m/s
42 m/s
40 m/s
38 m/s
36 m/s
34 m/s
32 m/s
30 m/s
28 m/s
26 m/s
24 m/s
22 m/s
20 m/s
16 m/s
12 m/s
8 m/s
4 m/s
30 m/s
28 m/s
26 m/s
24 m/s
22 m/s
20 m/s
18 m/s
16 m/s
14 m/s
12 m/s
10 m/s
8 m/s
6 m/s
4 m/s
2 m/s
3.0
2.8
2.6
2.4
2.2
2.0
1.8
1.6
1.4
1.2
1.0
0.8
0.6
0.4
0.2
15
14
13
12
11
10
9
8
7
6
5
4
3
2
1
90%
80%
70%
60%
50%
40%
30%
20%
10%
42
40
38
36
34
32
30
28
26
24
22
20
18
16
14
12
90+ cm
80-90 cm
70-80 cm
60-70 cm
50-60 cm
40-50 cm
30-40 cm
20-30 cm
10-20 cm
1-10 cm
Sneeuwval